Harare Kutsaga, Zimbabwe

11:34 PM CAT on December 16, 2017 (GMT +0200)
Harare Kutsaga

Weather History for FVHA - January, 2013

Change the Weather History Date:

Tuesday, January 15, 2013

  Actual Average Record
Temperature  
Mean Temperature 68 °F -  
Max Temperature 73 °F 78 °F 89 °F (2003)
Min Temperature 64 °F 60 °F 58 °F (2014)
Cooling Degree Days 4    
Growing Degree Days 18 (Base 50)    
Moisture  
Dew Point 64 °F    
Average Humidity 85    
Maximum Humidity 100    
Minimum Humidity 69    
Precipitation  
Precipitation 0.00 in 0.22 in - ()
Sea Level Pressure  
Sea Level Pressure 30.11 in    
Wind  
Wind Speed 12 mph ()    
Max Wind Speed 20 mph    
Max Gust Speed 30 mph    
Visibility 7.7 miles    
Events Rain    
Averages and records for this station are not official NWS values.
T = Trace of Precipitation, MM = Missing Value Source: Averaged Metar Reports

Daily Weather History Graph

Daily Weather History Graph

Search for Another Location

Airport or City:

Trip Planner

Search our weather history database for the weather conditions in past years. The results will help you decide how hot, cold, wet, or windy it might be!

Date:

Astronomy

Jan. 15, 2013 Rise Set
Actual Time 5:32 AM CAT 6:37 PM CAT
Civil Twilight 5:08 AM CAT 7:01 PM CAT
Nautical Twilight 4:40 AM CAT 7:28 PM CAT
Astronomical Twilight 4:11 AM CAT 7:57 PM CAT
Moon 8:57 AM CAT (1/15) 9:24 PM CAT (1/15)
Length of Visible Light 13h 52m
Length of Day
13h 04m
Waxing Crescent, 16% of the Moon is Illuminated
Jan 15
Waxing Crescent
Jan 19
First Quarter
Jan 27
Full
Feb 3
Last Quarter
Feb 10
New

Hourly Weather History & Observations

Time (CAT) Temp. Dew Point Humidity Pressure Visibility Wind Dir Wind Speed Gust Speed Precip Events Conditions
12:00 AM 66.2 °F 62.6 °F 88% 30.04 in 6.2 mi NE 12.7 mph - N/A   Mostly Cloudy
1:00 AM 66.2 °F 64.4 °F 94% 30.04 in 6.2 mi NE 13.8 mph - N/A   Mostly Cloudy
2:00 AM 66 °F 64 °F 91%  in 19 mi NE 15.0 mph - -   Mostly Cloudy
2:00 AM 66.2 °F 64.4 °F 94% 30.04 in 6.2 mi NE 15.0 mph - N/A   Mostly Cloudy
5:00 AM 64.4 °F 64.4 °F 100% 30.06 in 5.0 mi NE 8.1 mph - N/A   Light Drizzle
6:00 AM 64.4 °F 64.4 °F 100% 30.09 in 6.2 mi NE 13.8 mph - N/A   Mostly Cloudy
7:00 AM 64.4 °F 64.4 °F 100% 30.12 in 4.3 mi NNE 12.7 mph - N/A Rain Light Rain
8:00 AM 66 °F 64 °F 91%  in 19 mi NNE 13.8 mph - - Rain Light Rain
8:00 AM 66.2 °F 64.4 °F 94% 30.12 in 6.2 mi NNE 13.8 mph 27.6 mph N/A   Mostly Cloudy
9:00 AM 68.0 °F 62.6 °F 83% 30.12 in 6.2 mi NNE 18.4 mph 29.9 mph N/A   Mostly Cloudy
10:00 AM 69.8 °F 62.6 °F 78% 30.12 in 6.2 mi NNE 19.6 mph - N/A   Mostly Cloudy
11:00 AM 69.8 °F 62.6 °F 78% 30.15 in 6.2 mi North 19.6 mph - N/A Rain Light Rain Showers
12:00 PM 68.0 °F 64.4 °F 88% 30.12 in 6.2 mi NNE 15.0 mph - N/A Rain Light Rain
1:00 PM 71.6 °F 64.4 °F 78% 30.12 in 6.2 mi North 13.8 mph - N/A   Mostly Cloudy
2:00 PM 72 °F 64 °F 70%  in 19 mi North 13.8 mph - -   Partly Cloudy
2:00 PM 71.6 °F 64.4 °F 78% 30.09 in 6.2 mi North 13.8 mph - N/A   Mostly Cloudy
3:00 PM 73.4 °F 64.4 °F 73% 30.09 in 6.2 mi NNE 15.0 mph - N/A   Mostly Cloudy
4:00 PM 73.4 °F 62.6 °F 69% 30.06 in 6.2 mi North 11.5 mph - N/A   Mostly Cloudy
5:00 PM 73.4 °F 62.6 °F 69% 30.09 in 6.2 mi NNE 15.0 mph - N/A   Scattered Clouds
6:00 PM 71.6 °F 62.6 °F 73% 30.09 in 6.2 mi NNE 11.5 mph - N/A   Mostly Cloudy
7:00 PM 69.8 °F 62.6 °F 78% 30.15 in 6.2 mi NNE 9.2 mph - N/A   Mostly Cloudy
9:00 PM 68.0 °F 66.2 °F 94% 30.18 in 6.2 mi ENE 10.4 mph - N/A   Mostly Cloudy
10:00 PM 68.0 °F 64.4 °F 88% 30.18 in 6.2 mi ENE 11.5 mph - N/A   Mostly Cloudy
11:00 PM 66.2 °F 64.4 °F 94% 30.18 in 6.2 mi ENE 10.4 mph - N/A   Mostly Cloudy